This is the latest recevied weather packets stored in our database for station/object CE3TDM-12. If no packets are shown the sender has not sent any weather packets the latest 10 day(s).
| Time | Temp. | Humidity | Pressure | Rain* | Wind** | Luminosity | Snow |
|---|---|---|---|---|---|---|---|
| 1777622070 | 12.78° C | 36% | 776.4 hPa | - | - | - | - |
| 1777621769 | 12.22° C | 36% | 776.7 hPa | - | - | - | - |
| 1777621469 | 11.67° C | 36% | 776.8 hPa | - | - | - | - |
| 1777619158 | 12.22° C | 35% | 776.9 hPa | - | - | - | - |
| 1777618857 | 12.22° C | 36% | 776.8 hPa | - | - | - | - |
| 1777618554 | 12.22° C | 35% | 777.1 hPa | - | - | - | - |
| 1777618253 | 12.22° C | 35% | 776.9 hPa | - | - | - | - |
| 1777617953 | 12.22° C | 35% | 776.9 hPa | - | - | - | - |
| 1777617652 | 12.78° C | 35% | 777.1 hPa | - | - | - | - |
| 1777617352 | 12.22° C | 36% | 777 hPa | - | - | - | - |
| 1777617051 | 12.22° C | 35% | 777 hPa | - | - | - | - |
| 1777616750 | 12.22° C | 35% | 777 hPa | - | - | - | - |
| 1777616450 | 12.22° C | 35% | 777.2 hPa | - | - | - | - |
| 1777616150 | 12.22° C | 36% | 777.1 hPa | - | - | - | - |
| 1777615849 | 11.67° C | 36% | 777.1 hPa | - | - | - | - |
| 1777613477 | 11.67° C | 36% | 777.2 hPa | - | - | - | - |
| 1777613172 | 11.67° C | 36% | 777.1 hPa | - | - | - | - |
| 1777612867 | 11.67° C | 36% | 777.2 hPa | - | - | - | - |
| 1777612561 | 11.11° C | 36% | 777.1 hPa | - | - | - | - |
| 1777609392 | 12.22° C | 36% | 777.3 hPa | - | - | - | - |
| 1777609092 | 12.22° C | 36% | 777.3 hPa | - | - | - | - |
| 1777608791 | 12.22° C | 36% | 777.3 hPa | - | - | - | - |
| 1777606037 | 11.67° C | 36% | 777.4 hPa | - | - | - | - |
| 1777600509 | 13.33° C | 36% | 777 hPa | - | - | - | - |
| 1777600207 | 12.78° C | 35% | 777.1 hPa | - | - | - | - |
* Rain since midnight (hover to see other rain measurements)
** Current wind speed in m/s (hover to see current wind gust speed)